Terminal Aerodrome Forecast
Issued by NWS

Home | Current Version | Previous Version | Text Only | Print | Product List | Glossary On
Versions: 1 2 3 4 5 6 7 8 9 10 11 12 13 14 15 16
443
FTUS43 KDLH 271507 AAA
TAFHIB
TAF AMD
KHIB 271507Z 2715/2812 34010KT P6SM OVC020
     FM271700 33010G17KT P6SM OVC020
     FM280200 31007KT P6SM VCSH OVC015
     FM280600 30006KT P6SM OVC008=

USA.gov is the U.S. government's official web portal to all federal, state and local government web resources and services.